Location: �chenoz-la-M�line
(47.6009°N, 6.1354°E)
Time: 16:46:46
(UTC+00:00)

Cosmos 1606 Rocket - Pass Details

Date: 27 January 2021
Orbit: 604 x 631 km, 82.5° (Epoch: 03 March)

Event Time Altitude Azimuth Distance (km) Brightness Sun altitude
Rises 05:27:26 0° 184° (S) 2,844 7.0 -16.9°
Reaches altitude 10° 05:29:38 10° 182° (S) 1,947 6.2 -16.6°
Maximum altitude 05:33:55 77° 97° (E) 628 3.7 -15.8°
Drops below altitude 10° 05:38:17 10° 12° (NNE) 1,971 6.2 -15.1°
Sets 05:40:31 0° 11° (N) 2,884 7.0 -14.7°
